Weather Service Report


805 
ASUS46 KPQR 232010
RWROR 

OREGON REGIONAL WEATHER ROUNDUP
NATIONAL WEATHER SERVICE PORTLAND OR
1200 PM PST SUN FEB 23 2020

NOTE: "FAIR" INDICATES FEW OR NO CLOUDS BELOW 12,000 FEET WITH
NO SIGNIFICANT WEATHER AND/OR OBSTRUCTIONS TO VISIBILITY.

ORZ001>013-232100-
NORTHWEST OREGON

  
CITY           SKY/WX    TMP DP  RH WIND       PRES   REMARKS
ASTORIA        CLOUDY    47  38  71 W24G32    30.14R                  
TILLAMOOK      CLOUDY    48  37  66 SW18G25   30.23S                  
NEWPORT        CLOUDY    46  39  76 W13G20    30.33                   
FLORENCE       PTSUNNY   49  36  58 W10G23    30.35R                  
PORTLAND       MOSUNNY   52  33  48 W22G29    30.16R                  
VANCOUVER WA   SUNNY     51  33  50 W16G25    30.15R                  
SCAPPOOSE      LGT RAIN  46  36  68 W22G38    30.15R                  
HILLSBORO      PTSUNNY   50  34  54 W21G26    30.16R                  
AURORA         MOSUNNY   51  31  46 W18G26    30.20R                  
MCMINNVILLE    PTSUNNY   50  35  56 W28G41    30.19R                  
SALEM          SUNNY     52  31  44 W21G30    30.21R                  
CORVALLIS      MOSUNNY   48  37  65 W20G31    30.26R                  
EUGENE         PTSUNNY   49  41  74 W9        30.28R                  
CRESWELL       CLOUDY    46  45  93 W12G22    30.27R FOG              
$$

ORZ021-028-232100-
SOUTHWEST OREGON

  
CITY           SKY/WX    TMP DP  RH WIND       PRES   REMARKS
NORTH BEND     CLOUDY    50  44  80 NW14      30.39R                  
BROOKINGS      LGT RAIN  46  46 100 S6        30.42R VSB 3/4          
ROSEBURG       CLOUDY    51  42  71 W8G24     30.31R                  
SEXTON SUMMIT  LGT RAIN  39  37  92 SW12      30.27R WCI  32          
GRANTS PASS    CLOUDY    55  41  58 SW3       30.33S                  
MEDFORD        PTSUNNY   54  38  54 VRB6      30.28F                  
$$

ORZ014>016-041-232100-
COLUMBIA GORGE

  
CITY           SKY/WX    TMP DP  RH WIND       PRES   REMARKS
TROUTDALE      MOSUNNY   52  32  46 SW22G32   30.15R                  
HOOD RIVER     PTSUNNY   46  36  66 W15G28    30.10R                  
THE DALLES     PTSUNNY   48  32  53 W23G35    30.08R                  
$$

ORZ029>031-041-044-049-050-061>064-502-503-505>511-232100-
EASTERN OREGON

  
CITY           SKY/WX    TMP DP  RH WIND       PRES   REMARKS
MADRAS         CLOUDY    46  36  66 SW18G35   30.07R                  
REDMOND        SUNNY     54  29  38 W32G43    30.01R                  
BEND           SUNNY     52  28  40 SW23G30   30.03R                  
PRINEVILLE     MOSUNNY   54  30  40 W23G35    30.01R                  
KLAMATH FALLS  SUNNY     50  31  48 W18G26    30.23F                  
LAKEVIEW       CLOUDY    43  30  60 S17       30.23R                  
HERMISTON      LGT RAIN  50  34  54 W32G49    29.96R                  
PENDLETON      CLOUDY    48  39  71 W49G63    29.92R                  
JOHN DAY       SUNNY     54  29  38 SW20G35   29.97F                  
MEACHAM        PTSUNNY   48  25  40 VRB6G23   29.90F                  
LA GRANDE      MOSUNNY   49  27  42 S25G36    29.91F                  
BAKER CITY     SUNNY     52  27  38 SE13G23   29.95F                  
BURNS          MOSUNNY   53  27  36 W22G31    30.06F                  
ROME             N/A     57  26  30 W26G33    30.08F                  
ONTARIO        MOSUNNY   46  27  47 SE5       30.10F                  
$$
  

Return to Home page


Western Regional Climate Center, wrcc@dri.edu